Piney Island, NC

12:28 AM EDT on August 17, 2017 (GMT -0400)
Piney Island

Weather History for KNBT - March, 2013

Change the Weather History Date:

Monday, March 25, 2013

  Actual Average (KMRH) Record (KMRH)
Temperature  
Mean Temperature 47 °F -  
Max Temperature 51 °F 64 °F 75 °F (2012)
Min Temperature 41 °F 41 °F 24 °F (1983)
Degree Days  
Heating Degree Days 18    
Moisture  
Dew Point 39 °F    
Average Humidity 77    
Maximum Humidity 93    
Minimum Humidity 50    
Precipitation  
Precipitation 0.01 in - - ()
Sea Level Pressure  
Sea Level Pressure 29.61 in    
Wind  
Wind Speed 12 mph (West)    
Max Wind Speed 24 mph    
Max Gust Speed 36 mph    
Averages and records for this station are not official NWS values.
T = Trace of Precipitation, MM = Missing Value Source: NWS Daily Summary

Daily Weather History Graph

Daily Weather History Graph

Search for Another Location

Airport or City:

Trip Planner

Search our weather history database for the weather conditions in past years. The results will help you decide how hot, cold, wet, or windy it might be!

Date:

Astronomy

Mar. 25, 2013 Rise Set
Actual Time 7:02 AM EDT 7:21 PM EDT
Civil Twilight 6:36 AM EDT 7:47 PM EDT
Nautical Twilight 6:07 AM EDT 8:16 PM EDT
Astronomical Twilight 5:37 AM EDT 8:47 PM EDT
Moon 5:53 PM EDT (3/25) 5:41 AM EDT (3/25)
Length of Visible Light 13h 10m
Length of Day
12h 19m
Waxing Gibbous, 96% of the Moon is Illuminated
Mar 25
Waxing Gibbous
Mar 27
Full
Apr 3
Last Quarter
Apr 10
New
Apr 18
First Quarter

Hourly Weather History & Observations

Time (EDT) Temp. Windchill Dew Point Humidity Pressure Visibility Wind Dir Wind Speed Gust Speed Precip Events Conditions
12:56 AM 46.0 °F 41.9 °F 42.1 °F 86% 29.58 in - North 8.1 mph - N/A   Overcast
1:56 AM 46.0 °F 43.9 °F 42.1 °F 86% 29.57 in - North 4.6 mph - N/A   Overcast
3:56 AM 45.0 °F 43.5 °F 43.0 °F 93% 29.51 in - West 3.5 mph - N/A   Overcast
4:32 AM 44.6 °F 40.2 °F 42.8 °F 93% 29.51 in - West 8.1 mph - N/A   Overcast
4:56 AM 45.0 °F 39.3 °F 42.1 °F 90% 29.53 in - WSW 11.5 mph - N/A   Overcast
5:56 AM 45.0 °F 40.6 °F 42.1 °F 90% 29.54 in - West 8.1 mph - N/A   Overcast
6:56 AM 45.0 °F 39.7 °F 43.0 °F 93% 29.55 in - WSW 10.4 mph - N/A   Overcast
7:56 AM 46.0 °F 38.5 °F 43.0 °F 89% 29.57 in - WSW 19.6 mph 26.5 mph N/A   Overcast
8:17 AM 46.4 °F 39.5 °F 42.8 °F 87% 29.56 in - WSW 17.3 mph 26.5 mph N/A   Overcast
9:56 AM 46.0 °F 39.0 °F 42.1 °F 86% 29.59 in - West 17.3 mph - N/A   Overcast
10:19 AM 46.4 °F 40.1 °F 42.8 °F 87% 29.57 in - West 15.0 mph 23.0 mph 0.00 in   Overcast
10:26 AM 46.4 °F 41.1 °F 42.8 °F 87% 29.57 in - WSW 11.5 mph 21.9 mph 0.00 in   Overcast
10:56 AM 46.9 °F - 42.1 °F 83% 29.59 in - West 17.3 mph 24.2 mph 0.00 in   Overcast
11:56 AM 48.0 °F - 42.1 °F 80% 29.59 in - West 18.4 mph 24.2 mph N/A   Overcast
12:54 PM 48.2 °F - 41.0 °F 76% 29.57 in - West 20.7 mph 25.3 mph N/A   Overcast
12:56 PM 48.9 °F - 41.0 °F 74% 29.58 in - West 16.1 mph 25.3 mph N/A   Overcast
1:56 PM 48.9 °F - 41.0 °F 74% 29.58 in - West 24.2 mph 32.2 mph 0.00 in   Overcast
2:56 PM 46.9 °F - 37.9 °F 71% 29.60 in - West 20.7 mph 28.8 mph 0.00 in   Overcast
3:56 PM 50.0 °F - 39.0 °F 66% 29.59 in - West 18.4 mph 27.6 mph N/A   Scattered Clouds
4:56 PM 45.0 °F 36.4 °F 37.0 °F 74% 29.61 in - West 23.0 mph 35.7 mph 0.01 in Rain Light Rain
5:56 PM 48.0 °F - 43.0 °F 83% 29.64 in - West 19.6 mph 28.8 mph 0.00 in   Overcast
6:56 PM 48.9 °F - 32.0 °F 52% 29.67 in - West 20.7 mph 29.9 mph N/A   Scattered Clouds
7:56 PM 48.0 °F - 30.0 °F 50% 29.71 in - West 16.1 mph 25.3 mph N/A   Mostly Cloudy
8:56 PM 46.9 °F - 30.9 °F 54% 29.74 in - West 13.8 mph - N/A   Scattered Clouds
9:56 PM 46.9 °F - 28.9 °F 50% 29.77 in - West 17.3 mph 24.2 mph N/A   Mostly Cloudy
10:56 PM 46.0 °F 40.2 °F 28.9 °F 51% 29.79 in - West 12.7 mph - N/A   Scattered Clouds
11:56 PM 41.0 °F 35.8 °F 30.9 °F 67% 29.80 in - SW 8.1 mph - N/A   Overcast